User: anonymous   Login
Location: Bergnerzell
(49.1816°N, 10.2565°E)
Time: 23:18:18
(UTC+00:00)
Language:

FENGYUN 1C DEB - Orbit

View from above orbital plane
View from above orbital plane
View from above satellite
View from above satellite

Ground track
Ground track

The orbit data is extracted from the following two-line orbital elements,

1 30546U 99025AKL 24285.41440270  .00154625  00000-0  19665-1 0  9997
2 30546  98.9200  86.3307 0111884  75.8194 314.8439 14.76440494941348
Epoch (UTC): 11 October 2024 09:56:44
Eccentricity: 0.0111884
inclination: 98.9200°
perigee height: 562 km
apogee height: 719 km
right ascension of ascending node: 86.3307°
argument of perigee: 75.8194°
revolutions per day: 14.76440494
mean anomaly at epoch: 314.8439°
orbit number at epoch: 94134

The dashed part of the orbit path shows where the satellite is in the earth's shadow,  

DLR